Orbital Elements at Epoch 2459200.5 (2020-Dec-17.0) TDB
Reference: JPL 15 (heliocentric ecliptic J2000)
Element | Value | Uncertainty (1-sigma) | Units |
e | .1422724752108087 | 5.9517e-08 | |
a | 2.627727751071657 | 1.1322e-08 | au |
q | 2.253874419746561 | 1.5786e-07 | au |
i | 31.93851282756201 | 7.0851e-06 | deg |
node | 246.3715912106013 | 7.3567e-06 | deg |
peri | 169.3871495401261 | 2.2721e-05 | deg |
M | 2.1790405299145 | 1.726e-05 | deg |
tp | 2459191.082583337989 (2020-Dec-07.58258334) | 7.461e-05 | TDB |
period | 1555.854492737256 4.26 | 1.0055e-05 2.753e-08 | d yr |
n | .2313841054420471 | 1.4954e-09 | deg/d |
Q | 3.001581082396754 | 1.2933e-08 | au |
|
| | Orbit Determination Parameters
Additional Information
|